[[{"header":{"parameterUnit":"m.s-1","parameterCategory":1,"la1":30.2992,"la2":30.254,"lo1":-89.0895,"lo2":-89.0443,"dy":0.0025,"dx":0.0025,"nx":19,"ny":19,"refTime":"2026-05-16T21:00:00:Z","depth":0,"parameterNumber":2,"parameterNumberName":"U-component_of_WINDS"},"data":[0,0,0,-4.4023,-4.4025,-4.4155,-4.4155,-4.4322,-4.4324,0,0,0,0,0,0,0,0,0,0,0,-4.3988,-4.3989,-4.4022,-4.4026,-4.4155,-4.4155,-4.4322,-4.4324,0,0,0,0,0,0,0,0,0,0,0,-4.3987,-4.3989,-4.399,-4.4026,-4.4154,-4.4155,-4.4322,-4.4223,0,0,0,0,0,0,0,0,0,0,-4.4097,-4.4069,-4.3988,-4.399,-4.4027,-4.4154,-4.4155,-4.4218,-4.4229,-4.4266,0,-4.43,0,-4.4315,-4.4335,-4.4336,0,0,0,-4.4023,-4.4059,-4.4092,-4.399,-4.4028,-4.4154,-4.4096,-4.4224,-4.4237,-4.428,-4.4303,-4.4309,-4.4318,-4.4337,-4.4337,-4.4559,-4.456,0,0,-4.4016,-4.4012,-4.4083,-4.41,-4.4082,-4.4091,-4.41,-4.4232,-4.4255,-4.4303,-4.4312,-4.432,-4.4338,-4.4339,-4.4558,-4.4559,0,0,0,-4.3997,-4.4007,-4.4036,-4.4093,-4.4116,-4.4095,-4.4105,-4.4249,-4.4259,-4.4314,-4.4322,-4.4339,-4.4341,-4.4557,-4.4558,-4.4611,0,0,0,-4.3993,-4.3996,-4.4033,-4.4032,-4.4114,-4.4185,-4.4119,-4.425,-4.4265,-4.4322,-4.4339,-4.4343,-4.4555,-4.4558,-4.4607,-4.4636,0,0,0,-4.3978,-4.3995,-4.4015,-4.4032,-4.4087,-4.4183,-4.42,-4.4253,-4.427,-4.4336,-4.4343,-4.4554,-4.4557,-4.4603,-4.463,-4.4691,0,0,0,-4.3961,-4.406,-4.4015,-4.413,-4.4086,-4.4216,-4.4199,-4.4296,-4.4359,-4.434,-4.4556,-4.4558,-4.4602,-4.4626,-4.4687,-4.474,-4.4763,0,0,-4.4084,-4.4075,-4.4142,-4.4106,-4.4243,-4.4196,-4.4341,-4.4401,-4.4411,-4.4508,-4.4514,-4.4608,-4.4629,-4.469,-4.4896,-4.4914,0,0,0,-4.418,-4.4228,-4.4265,-4.4326,-4.4376,-4.4419,-4.4459,-4.4481,-4.4565,-4.4461,-4.4649,-4.4661,-4.4697,-4.4722,-4.4738,-4.4767,-4.4571,-4.457,-4.457,-4.4347,-4.4355,-4.4466,-4.4489,-4.4548,-4.4587,-4.4635,-4.4671,-4.4662,-4.4706,-4.4734,-4.4858,-4.4888,-4.4899,-4.493,-4.4765,-4.4766,-4.4766,-4.4766,-4.4526,-4.4594,-4.4579,-4.4681,-4.4688,-4.4774,-4.4816,-4.4806,-4.4885,-4.4838,-4.487,-4.4814,-4.4919,-4.4946,-4.477,-4.4769,-4.4769,-4.4768,-4.4768,-4.4633,-4.4667,-4.4694,-4.4781,-4.4848,-4.4868,-4.4944,-4.4948,-4.4952,-4.4984,-4.5013,-4.5012,-4.5009,-4.4998,-4.4999,-4.4999,-4.5,-4.5,-4.5,-4.4733,-4.4762,-4.4826,-4.4888,-4.4926,-4.4978,-4.5019,-4.5057,-4.5099,-4.5096,-4.5096,-4.508,-4.4929,-4.4889,-4.5007,-4.5006,-4.5005,-4.5004,-4.5004,-4.4906,-4.4868,-4.4967,-4.5006,-4.5078,-4.5142,-4.5147,-4.5224,-4.5256,-4.5293,-4.5271,-4.516,-4.515,-4.5138,-4.5105,-4.5271,-4.5271,-4.5271,-4.5271,-4.4994,-4.4991,-4.5093,-4.5154,-4.5215,-4.523,-4.534,-4.5373,-4.5401,-4.5421,-4.5398,-4.5356,-4.5343,-4.5341,-4.5324,-4.5293,-4.5503,-4.5504,-4.5504,-4.51,-4.5102,-4.5196,-4.5224,-4.528,-4.5327,-4.5431,-4.55,-4.5524,-4.5513,-4.5436,-4.5426,-4.5357,-4.5335,-4.5319,-4.5293,-4.5236,0,0]},{"header":{"parameterUnit":"m.s-1","parameterCategory":1,"la1":30.2992,"la2":30.254,"lo1":-89.0895,"lo2":-89.0443,"dy":0.0025,"dx":0.0025,"nx":19,"ny":19,"refTime":"2026-05-16T21:00:00:Z","depth":0,"parameterNumber":3,"parameterNumberName":"V-component_of_WINDS"},"data":[0,0,0,4.5341,4.5342,4.5414,4.5414,4.5517,4.5518,0,0,0,0,0,0,0,0,0,0,0,4.5329,4.533,4.5341,4.5343,4.5414,4.5414,4.5517,4.5518,0,0,0,0,0,0,0,0,0,0,0,4.5328,4.5329,4.5331,4.5343,4.5414,4.5414,4.5516,4.5458,0,0,0,0,0,0,0,0,0,0,4.5387,4.5385,4.5329,4.5331,4.5343,4.5414,4.5414,4.5455,4.5462,4.549,0,4.552,0,4.5521,4.5526,4.5526,0,0,0,4.5335,4.5379,4.5391,4.5331,4.5344,4.5414,4.538,4.5459,4.5466,4.5499,4.5521,4.5525,4.5523,4.5527,4.5527,4.572,4.5721,0,0,4.5331,4.5346,4.5385,4.5396,4.5388,4.5377,4.5382,4.5463,4.5487,4.5521,4.5527,4.5524,4.5527,4.5528,4.5719,4.5721,0,0,0,4.5325,4.5343,4.5352,4.5392,4.5404,4.538,4.5385,4.5483,4.5485,4.5528,4.5525,4.5528,4.5529,4.5718,4.572,4.5795,0,0,0,4.5322,4.5339,4.5351,4.536,4.5403,4.5445,4.5404,4.548,4.5488,4.5525,4.5528,4.5531,4.5716,4.5719,4.579,4.5827,0,0,0,4.5321,4.5339,4.5353,4.5361,4.5393,4.5443,4.545,4.5481,4.5487,4.5526,4.5531,4.5715,4.5718,4.5785,4.5819,4.5881,0,0,0,4.5323,4.5418,4.5354,4.546,4.5392,4.5491,4.5449,4.5521,4.5564,4.5529,4.5716,4.5719,4.5784,4.5815,4.5876,4.5934,4.596,0,0,4.5451,4.5434,4.5495,4.544,4.5554,4.5478,4.5602,4.5627,4.5617,4.5686,4.569,4.5791,4.5819,4.588,4.6104,4.6125,0,0,0,4.554,4.5584,4.5611,4.5653,4.5676,4.5697,4.5702,4.5711,4.5769,4.5656,4.583,4.5847,4.5882,4.5908,4.5926,4.5955,4.5733,4.5733,4.5732,4.5741,4.5724,4.5824,4.5816,4.5857,4.5861,4.5892,4.5905,4.5875,4.5917,4.5936,4.6075,4.6107,4.612,4.615,4.5967,4.5968,4.5968,4.5968,4.5926,4.5984,4.5944,4.6026,4.6007,4.6075,4.6082,4.6059,4.6118,4.6058,4.6088,4.6023,4.6143,4.6169,4.5973,4.5972,4.5972,4.5971,4.5971,4.6053,4.6078,4.6089,4.6148,4.6195,4.6184,4.6243,4.6224,4.6206,4.6236,4.6254,4.6252,4.6247,4.6246,4.6247,4.6247,4.6248,4.6248,4.6248,4.6181,4.6191,4.6244,4.6276,4.63,4.633,4.6336,4.6358,4.6378,4.6359,4.636,4.6325,4.616,4.6117,4.6256,4.6254,4.6253,4.6253,4.6252,4.6371,4.6325,4.6407,4.6432,4.6468,4.6515,4.6491,4.6539,4.6555,4.6584,4.6544,4.6426,4.6406,4.6392,4.6356,4.6548,4.6548,4.6548,4.6548,4.6477,4.6467,4.6546,4.6586,4.6624,4.661,4.6701,4.6706,4.6704,4.6713,4.6683,4.6635,4.6622,4.661,4.6591,4.6557,4.6796,4.6797,4.6797,4.6593,4.6585,4.6667,4.6666,4.6692,4.6715,4.68,4.6846,4.6834,4.6806,4.6719,4.6708,4.6631,4.6607,4.6575,4.6546,4.6484,0,0]}]]